Regional Weather Roundup
Issued by NWS Columbia, SC

Home | Current Version | Previous Version | Text Only | Print | Product List | Glossary On
Versions: 1 2 3 4 5 6 7 8 9 10 11 12 13 14 15 16 17 18 19 20 21 22 23 24 25 26 27 28 29 30 31 32 33 34 35 36 37 38 39 40 41 42 43 44 45 46 47 48 49 50
000
ASUS42 KCAE 251610
RWRCAE
REGIONAL WEATHER ROUNDUP
NATIONAL WEATHER SERVICE COLUMBIA SC
1200 PM EDT TUE APR 25 2017

NOTE: "FAIR" INDICATES FEW OR NO CLOUDS BELOW 12,000 FEET WITH NO
SIGNIFICANT WEATHER AND/OR OBSTRUCTIONS TO VISIBILITY.

NOT ALL STATIONS ARE QUALITY CONTROLLED BY THE NATIONAL
WEATHER SERVICE. USE DATA WITH CAUTION...ESPECIALLY
DEWPOINT OBSERVATIONS.

SCZ001>056-GAZ040-063>065-077-251700-
...UPSTATE SOUTH CAROLINA...

CITY           SKY/WX    TMP DP  RH WIND       PRES   REMARKS
ANDERSON       PTSUNNY   67  56  67 SW3       29.74S
LIBERTY        SUNNY     71  57  59 S5        29.72F
SPARTANBURG    CLOUDY    64  55  72 NE6       29.73S
CLEMSON        MOSUNNY   71  57  61 VRB3      29.74F
GREENVILLE     MOSUNNY   70  56  61 VRB3      29.74S
GREENWOOD      CLOUDY    68  56  65 NW7       29.75R
GREER          CLOUDY    66  56  70 W6        29.72S
ROCK HILL      CLOUDY    60  56  86 N8        29.74R
CHESTER        CLOUDY    59  57  94 N6        29.74S FOG
LAURENS        CLOUDY    63  55  77 CALM      29.74R


...CENTRAL SOUTH CAROLINA...

CITY           SKY/WX    TMP DP  RH WIND       PRES   REMARKS
COLUMBIA APT   PTSUNNY   67  55  65 VRB7G16   29.71S
COLUMBIA OWENS CLOUDY    66  55  67 NW8       29.73
MCENTIRE ANGB  PTSUNNY   67  57  71 NW16      29.71S
ORANGEBURG     PTSUNNY   68  57  68 NW9       29.72F
SUMTER SHAW    CLOUDY    61  57  87 NW7       29.69R
NEWBERRY       CLOUDY    64  57  77 N9        29.76S
AIKEN          PTSUNNY   68  55  64 W12       29.77R
BARNWELL       PTSUNNY   70  61  73 VRB5G12   29.73F
MANNING        CLOUDY    61  55  82 MISG      29.71S
CAMDEN         FAIR      61  59  94 W8        29.72S FOG
LANCASTER      CLOUDY    59  59 100 NW3       29.72F
WINNSBORO      CLOUDY    59  55  88 NW7       29.73S


...EASTERN AND COASTAL SOUTH CAROLINA...

CITY           SKY/WX    TMP DP  RH WIND       PRES   REMARKS
MYRTLE BEACH   CLOUDY    64  57  77 W12       29.68F
N MYRTLE BCH   CLOUDY    64  59  83 W10       29.66F
CONWAY         CLOUDY    63  57  82 W6        29.68S HAZE
MARION         CLOUDY    59  55  88 NW8       29.68S
HARTSVILLE     CLOUDY    59  55  88 W5        29.69S
FLORENCE       CLOUDY    61  59  93 W9        29.68F
DARLINGTON     CLOUDY    61  58  90 NW8       29.69S
CHARLESTON APT PTSUNNY   66  56  70 NW13G22   29.71F
MOUNT PLEASANT CLOUDY    64  57  77 W9        29.72R
WALTERBORO     CLOUDY    64  55  72 NW8       29.75S
BEAUFORT       PTSUNNY   70  58  65 NW13G21   29.74F


...EASTERN GEORGIA...

CITY           SKY/WX    TMP DP  RH WIND       PRES   REMARKS
AUGUSTA BUSH F PTSUNNY   73  57  57 NW12      29.72F
AUGUSTA DANIEL PTSUNNY   71  55  56 W7        29.74F
THOMSON        MOSUNNY   70  57  63 N12       29.79F
WASHINGTON     PTSUNNY   68  59  73 W7        29.75F
CLAXTON        FAIR      72  62  70 W5        29.77F
SYLVANIA       MOSUNNY  N/A N/A N/A NW8       29.75F
STATESBORO     MOSUNNY   71  57  60 W7        29.76F
SAVANNAH       MOSUNNY   71  54  54 NW14G21   29.76F


...SOUTHERN NORTH CAROLINA...

CITY           SKY/WX    TMP DP  RH WIND       PRES   REMARKS
CHARLOTTE      CLOUDY    61  55  81 N10       29.72F
MONROE         CLOUDY    59  54  83 N6        29.71R
WADESBORO      CLOUDY    60  56  86 NW6       29.70R
RUTHERFORDTON  CLOUDY    68  56  64 NE8G16    29.74S
ASHEVILLE      SUNNY     65  51  60 N16G22    29.77S

$$



USA.gov is the U.S. government's official web portal to all federal, state and local government web resources and services.